Location: Hochstatterhof
(48.7256°N, 10.3487°E)
Time: 01:53:41
(UTC+00:00)

Cosmos 2082 Rocket - Pass Details

Date: 26 September 2023
Orbit: 834 x 852 km, 71.0° (Epoch: 04 December)

Event Time Altitude Azimuth Distance (km) Brightness Sun altitude
Exits shadow 01:01:14 31° 64° (ENE) 1,451 3.7 -36.7°
Drops below altitude 10° 01:04:35 10° 39° (NE) 2,490 5.4 -36.4°
Sets 01:07:08 0° 33° (NNE) 3,429 6.4 -36.1°
